Total_Precipitation_Accumulation
0.31 0.29 0.34 0.40 0.42 0.51 0.65 0.83 1.06 0.95 0.74 0.63 0.62 0.58 0.60 0.66 0.59 0.55 0.54 0.54 0.55 0.53 0.53 0.55 0.59 0.67 0.75 0.87 1.07 1.19 1.28 1.26 1.17 1.09 1.00 0.91 0.82 0.73 0.73 0.64 0.62 0.69 0.84 1.00
0.18 0.18 0.23 0.33 0.45 0.59 0.66 0.72 0.74 0.65 0.61 0.47 0.45 0.40 0.41 0.47 0.47 0.48 0.43 0.38 0.39 0.42 0.43 0.48 0.52 0.59 0.60 0.71 0.88 1.00 1.08 1.11 1.17 1.13 0.96 0.85 0.75 0.66 0.64 0.62 0.61 0.61 0.69 0.84
0.20 0.16 0.27 0.48 0.57 0.64 0.64 0.59 0.51 0.48 0.43 0.31 0.28 0.25 0.24 0.30 0.35 0.41 0.40 0.34 0.32 0.32 0.36 0.43 0.51 0.55 0.59 0.70 0.82 0.86 0.91 0.94 0.99 0.99 0.84 0.77 0.66 0.59 0.57 0.57 0.58 0.57 0.64 0.76
0.30 0.25 0.48 0.68 0.55 0.50 0.55 0.45 0.31 0.28 0.27 0.25 0.20 0.17 0.15 0.16 0.19 0.21 0.24 0.25 0.30 0.28 0.28 0.32 0.39 0.50 0.64 0.68 0.68 0.69 0.75 0.77 0.77 0.79 0.74 0.67 0.57 0.54 0.54 0.56 0.59 0.59 0.60 0.65
0.45 0.42 0.53 0.61 0.41 0.39 0.47 0.45 0.25 0.19 0.18 0.15 0.13 0.11 0.10 0.10 0.12 0.13 0.13 0.16 0.20 0.20 0.20 0.22 0.24 0.28 0.34 0.39 0.43 0.45 0.54 0.62 0.66 0.68 0.65 0.60 0.54 0.60 0.64 0.61 0.60 0.58 0.55 0.56
0.53 0.60 0.67 0.47 0.20 0.20 0.34 0.52 0.22 0.13 0.11 0.10 0.10 0.12 0.11 0.11 0.12 0.11 0.09 0.08 0.12 0.15 0.14 0.14 0.16 0.17 0.20 0.24 0.28 0.31 0.37 0.45 0.52 0.59 0.61 0.63 0.73 0.80 0.80 0.76 0.67 0.59 0.54 0.53
0.59 0.78 0.73 0.43 0.19 0.21 0.40 0.55 0.28 0.13 0.10 0.11 0.11 0.11 0.09 0.11 0.11 0.10 0.08 0.07 0.08 0.11 0.12 0.13 0.14 0.14 0.16 0.19 0.19 0.22 0.23 0.29 0.40 0.56 0.64 0.71 0.83 0.86 0.83 0.76 0.65 0.58 0.55 0.51
0.73 0.94 0.96 0.49 0.28 0.34 0.32 0.21 0.17 0.11 0.09 0.10 0.09 0.09 0.09 0.09 0.08 0.08 0.09 0.07 0.08 0.09 0.09 0.12 0.14 0.12 0.13 0.20 0.20 0.24 0.25 0.26 0.34 0.45 0.58 0.72 0.81 0.79 0.78 0.79 0.71 0.62 0.61 0.58
0.79 0.80 0.63 0.38 0.27 0.22 0.16 0.15 0.09 0.07 0.07 0.08 0.08 0.08 0.09 0.09 0.08 0.08 0.08 0.07 0.09 0.09 0.10 0.10 0.11 0.13 0.13 0.16 0.20 0.23 0.25 0.21 0.23 0.32 0.46 0.64 0.72 0.73 0.74 0.76 0.73 0.69 0.64 0.60
0.39 0.28 0.22 0.19 0.17 0.12 0.09 0.09 0.06 0.04 0.04 0.07 0.10 0.09 0.08 0.08 0.08 0.08 0.08 0.07 0.07 0.09 0.09 0.10 0.11 0.13 0.16 0.19 0.20 0.20 0.22 0.22 0.21 0.21 0.27 0.36 0.44 0.50 0.58 0.63 0.63 0.63 0.63 0.63
0.31 0.18 0.13 0.13 0.13 0.10 0.08 0.07 0.05 0.04 0.03 0.05 0.08 0.09 0.06 0.08 0.07 0.08 0.08 0.08 0.08 0.09 0.11 0.10 0.12 0.12 0.15 0.19 0.21 0.21 0.22 0.24 0.24 0.25 0.28 0.29 0.32 0.35 0.39 0.43 0.51 0.58 0.57 0.60
0.29 0.20 0.14 0.11 0.11 0.11 0.10 0.08 0.07 0.05 0.04 0.06 0.08 0.08 0.06 0.06 0.06 0.07 0.08 0.09 0.09 0.11 0.12 0.12 0.12 0.14 0.14 0.15 0.17 0.19 0.20 0.21 0.20 0.21 0.24 0.25 0.27 0.29 0.32 0.32 0.39 0.43 0.43 0.43
0.14 0.15 0.13 0.12 0.12 0.12 0.10 0.07 0.06 0.05 0.05 0.05 0.06 0.09 0.06 0.05 0.06 0.10 0.12 0.10 0.09 0.10 0.12 0.13 0.13 0.13 0.15 0.15 0.16 0.18 0.19 0.19 0.19 0.18 0.21 0.24 0.24 0.26 0.29 0.28 0.26 0.26 0.30 0.33
0.08 0.11 0.15 0.14 0.12 0.11 0.08 0.07 0.05 0.04 0.04 0.04 0.05 0.08 0.07 0.06 0.08 0.10 0.10 0.12 0.12 0.12 0.13 0.13 0.12 0.11 0.13 0.16 0.18 0.19 0.21 0.23 0.22 0.23 0.24 0.23 0.24 0.28 0.31 0.32 0.28 0.22 0.23 0.27
0.09 0.09 0.11 0.12 0.10 0.09 0.07 0.06 0.05 0.04 0.04 0.05 0.06 0.07 0.09 0.10 0.12 0.14 0.14 0.12 0.10 0.10 0.11 0.13 0.12 0.11 0.12 0.16 0.19 0.20 0.20 0.21 0.23 0.26 0.26 0.26 0.29 0.33 0.32 0.31 0.28 0.25 0.23 0.23
0.10 0.09 0.11 0.11 0.09 0.07 0.06 0.06 0.05 0.06 0.05 0.07 0.09 0.08 0.08 0.10 0.13 0.17 0.20 0.18 0.14 0.10 0.11 0.15 0.15 0.15 0.16 0.18 0.20 0.21 0.21 0.24 0.25 0.25 0.27 0.29 0.30 0.30 0.28 0.28 0.26 0.24 0.23 0.24
0.13 0.12 0.10 0.09 0.06 0.05 0.05 0.07 0.08 0.08 0.08 0.08 0.11 0.11 0.09 0.08 0.10 0.14 0.16 0.18 0.16 0.13 0.12 0.15 0.18 0.19 0.18 0.17 0.19 0.21 0.22 0.24 0.26 0.24 0.23 0.24 0.25 0.25 0.26 0.24 0.23 0.22 0.21 0.22
0.13 0.11 0.08 0.06 0.05 0.05 0.06 0.08 0.09 0.09 0.09 0.10 0.12 0.13 0.12 0.11 0.11 0.12 0.14 0.18 0.17 0.13 0.12 0.14 0.18 0.21 0.20 0.19 0.20 0.23 0.23 0.22 0.20 0.20 0.22 0.23 0.24 0.25 0.27 0.29 0.29 0.27 0.26 0.24
0.11 0.09 0.07 0.06 0.06 0.08 0.10 0.10 0.10 0.09 0.09 0.10 0.11 0.13 0.14 0.14 0.13 0.13 0.15 0.19 0.19 0.15 0.12 0.12 0.17 0.18 0.18 0.20 0.21 0.21 0.22 0.21 0.20 0.20 0.20 0.22 0.26 0.27 0.28 0.29 0.31 0.31 0.32 0.30
0.14 0.12 0.10 0.10 0.11 0.12 0.12 0.11 0.11 0.10 0.09 0.10 0.11 0.13 0.14 0.14 0.14 0.14 0.15 0.19 0.19 0.17 0.13 0.14 0.15 0.15 0.17 0.19 0.21 0.19 0.20 0.18 0.20 0.22 0.22 0.24 0.26 0.28 0.28 0.28 0.30 0.31 0.30 0.30
0.18 0.18 0.16 0.16 0.15 0.13 0.13 0.13 0.12 0.11 0.11 0.12 0.13 0.14 0.15 0.15 0.14 0.14 0.15 0.17 0.16 0.14 0.14 0.16 0.15 0.16 0.18 0.22 0.22 0.20 0.20 0.18 0.19 0.22 0.22 0.24 0.27 0.30 0.33 0.32 0.30 0.29 0.29 0.28
0.19 0.19 0.17 0.15 0.14 0.15 0.14 0.13 0.13 0.13 0.13 0.14 0.15 0.15 0.17 0.19 0.18 0.16 0.15 0.17 0.17 0.19 0.18 0.17 0.16 0.18 0.22 0.23 0.20 0.20 0.22 0.22 0.20 0.22 0.23 0.25 0.27 0.31 0.36 0.38 0.36 0.32 0.31 0.32
0.18 0.18 0.18 0.17 0.15 0.15 0.14 0.14 0.15 0.16 0.17 0.17 0.18 0.20 0.24 0.25 0.24 0.24 0.23 0.21 0.21 0.23 0.21 0.20 0.22 0.26 0.26 0.22 0.21 0.21 0.23 0.25 0.25 0.25 0.27 0.30 0.31 0.35 0.38 0.40 0.42 0.41 0.38 0.38
0.22 0.21 0.20 0.20 0.19 0.19 0.20 0.21 0.20 0.19 0.21 0.23 0.23 0.25 0.28 0.31 0.32 0.31 0.31 0.31 0.30 0.27 0.23 0.24 0.26 0.27 0.27 0.23 0.25 0.27 0.27 0.28 0.31 0.32 0.34 0.36 0.36 0.38 0.41 0.42 0.44 0.46 0.46 0.45
0.30 0.27 0.27 0.29 0.30 0.29 0.29 0.28 0.26 0.23 0.23 0.26 0.27 0.25 0.26 0.28 0.30 0.34 0.35 0.34 0.34 0.33 0.31 0.32 0.33 0.33 0.29 0.26 0.29 0.31 0.33 0.35 0.38 0.39 0.39 0.39 0.39 0.39 0.40 0.42 0.45 0.47 0.49 0.49
0.27 0.26 0.27 0.29 0.32 0.31 0.31 0.30 0.30 0.29 0.28 0.28 0.28 0.27 0.28 0.28 0.29 0.32 0.35 0.37 0.38 0.39 0.36 0.32 0.29 0.30 0.30 0.32 0.34 0.35 0.36 0.37 0.37 0.36 0.38 0.41 0.42 0.42 0.43 0.46 0.47 0.50 0.52 0.53
0.25 0.24 0.23 0.27 0.30 0.30 0.29 0.30 0.34 0.34 0.34 0.34 0.37 0.36 0.35 0.36 0.36 0.36 0.36 0.38 0.42 0.43 0.42 0.40 0.37 0.36 0.37 0.39 0.39 0.39 0.40 0.39 0.38 0.39 0.41 0.43 0.46 0.49 0.50 0.51 0.52 0.54 0.57 0.59